• In Belarus
  • List of Countries
  • For 7 days
  • Water Temperature
  • Satellite Maps
  • Weather Map
  • Weather Widgets
  • user-avatar
    Login

    Hourly Weather Rakitnoe

    Today, 20 October, Friday

    Time Temperature Precipitation Wind Pressure Humidity
    00:00 +13°C° 0 mm 2 mps 748 mmHg 85%
    01:00 +13°C° 0 mm 2 mps 748 mmHg 88%
    02:00 +12°C° 0 mm 2 mps 748 mmHg 90%
    03:00 +12°C° 0 mm 2 mps 748 mmHg 91%
    04:00 +10°C° 0 mm 3 mps 749 mmHg 92%
    05:00 +10°C° 0 mm 3 mps 749 mmHg 93%
    06:00 +10°C° 0 mm 3 mps 749 mmHg 91%
    07:00 +10°C° 0 mm 3 mps 749 mmHg 88%
    08:00 +11°C° 0 mm 3 mps 749 mmHg 86%
    09:00 +12°C° 0 mm 3 mps 750 mmHg 80%
    10:00 +13°C° 0 mm 3 mps 750 mmHg 74%
    11:00 +16°C° 0 mm 3 mps 750 mmHg 68%
    12:00 +16°C° 0 mm 3 mps 750 mmHg 66%
    13:00 +17°C° 0 mm 3 mps 750 mmHg 64%
    14:00 +17°C° 0 mm 3 mps 750 mmHg 62%
    15:00 +16°C° 0 mm 3 mps 750 mmHg 66%
    16:00 +14°C° 0 mm 3 mps 750 mmHg 69%
    17:00 +13°C° 0 mm 3 mps 750 mmHg 73%
    18:00 +13°C° 0 mm 2 mps 750 mmHg 74%
    19:00 +12°C° 0 mm 2 mps 751 mmHg 75%
    20:00 +10°C° 0 mm 2 mps 751 mmHg 77%
    21:00 +10°C° 0 mm 2 mps 751 mmHg 77%
    22:00 +10°C° 0 mm 2 mps 751 mmHg 78%
    23:00 +9°C° 0 mm 2 mps 751 mmHg 78%

    Tomorrow, 21 October, Saturday

    Time Temperature Precipitation Wind Pressure Humidity
    00:00 +9°C° 0 mm 2 mps 751 mmHg 78%
    01:00 +8°C° 0 mm 2 mps 751 mmHg 79%
    02:00 +8°C° 0 mm 2 mps 751 mmHg 79%
    03:00 +8°C° 0 mm 2 mps 751 mmHg 80%
    04:00 +7°C° 0 mm 2 mps 751 mmHg 80%
    05:00 +7°C° 0 mm 2 mps 751 mmHg 81%
    06:00 +7°C° 0 mm 2 mps 751 mmHg 79%
    07:00 +8°C° 0 mm 2 mps 751 mmHg 77%
    08:00 +8°C° 0 mm 2 mps 751 mmHg 75%
    09:00 +9°C° 0 mm 2 mps 751 mmHg 70%
    10:00 +12°C° 0 mm 2 mps 751 mmHg 64%
    11:00 +13°C° 0 mm 2 mps 751 mmHg 59%
    12:00 +14°C° 0 mm 2 mps 750 mmHg 58%
    13:00 +15°C° 0 mm 2 mps 750 mmHg 56%
    14:00 +15°C° 0 mm 1 mps 749 mmHg 54%
    15:00 +14°C° 0 mm 2 mps 749 mmHg 58%
    16:00 +14°C° 0 mm 2 mps 749 mmHg 61%
    17:00 +13°C° 0 mm 2 mps 748 mmHg 64%
    18:00 +12°C° 0 mm 2 mps 748 mmHg 64%
    19:00 +12°C° 0 mm 2 mps 748 mmHg 65%
    20:00 +11°C° 0 mm 3 mps 748 mmHg 65%
    21:00 +10°C° 0.2 mm 3 mps 748 mmHg 66%
    22:00 +10°C° 0.2 mm 3 mps 748 mmHg 66%
    23:00 +9°C° 0.2 mm 3 mps 748 mmHg 67%

    Day after tomorrow, 22 October, Sunday

    Time Temperature Precipitation Wind Pressure Humidity
    00:00 +9°C° 0.9 mm 3 mps 748 mmHg 69%
    01:00 +8°C° 0.9 mm 3 mps 748 mmHg 70%
    02:00 +7°C° 0.9 mm 4 mps 748 mmHg 72%
    03:00 +6°C° 0.7 mm 4 mps 748 mmHg 74%
    04:00 +7°C° 0.7 mm 3 mps 748 mmHg 75%
    05:00 +7°C° 0.7 mm 3 mps 748 mmHg 77%
    06:00 +7°C° 0.1 mm 3 mps 748 mmHg 76%
    07:00 +6°C° 0.1 mm 4 mps 749 mmHg 75%
    08:00 +6°C° 0.1 mm 4 mps 749 mmHg 74%
    09:00 +7°C° 0 mm 4 mps 749 mmHg 69%
    10:00 +9°C° 0 mm 3 mps 750 mmHg 64%
    11:00 +10°C° 0 mm 3 mps 750 mmHg 59%
    12:00 +11°C° 0 mm 3 mps 750 mmHg 57%
    13:00 +11°C° 0 mm 3 mps 750 mmHg 55%
    14:00 +12°C° 0 mm 3 mps 750 mmHg 53%
    15:00 +11°C° 0 mm 3 mps 750 mmHg 56%
    16:00 +10°C° 0 mm 2 mps 750 mmHg 59%
    17:00 +9°C° 0 mm 2 mps 750 mmHg 62%
    18:00 +9°C° 0 mm 2 mps 750 mmHg 64%
    19:00 +8°C° 0 mm 3 mps 750 mmHg 66%
    20:00 +7°C° 0 mm 3 mps 750 mmHg 68%
    21:00 +7°C° 0 mm 3 mps 750 mmHg 68%
    22:00 +7°C° 0 mm 3 mps 751 mmHg 68%
    23:00 +5°C° 0 mm 3 mps 751 mmHg 68%

    23 October, Monday

    Time Temperature Precipitation Wind Pressure Humidity
    00:00 +5°C° 0 mm 3 mps 751 mmHg 68%
    01:00 +5°C° 0 mm 3 mps 751 mmHg 68%
    02:00 +5°C° 0 mm 3 mps 751 mmHg 68%
    03:00 +4°C° 0 mm 3 mps 750 mmHg 68%
    04:00 +4°C° 0 mm 3 mps 750 mmHg 68%
    05:00 +4°C° 0 mm 3 mps 750 mmHg 68%
    06:00 +4°C° 0 mm 4 mps 750 mmHg 67%
    07:00 +5°C° 0 mm 4 mps 750 mmHg 65%
    08:00 +5°C° 0 mm 5 mps 750 mmHg 64%
    09:00 +6°C° 0 mm 5 mps 750 mmHg 61%
    10:00 +7°C° 0 mm 5 mps 750 mmHg 58%
    11:00 +8°C° 0 mm 5 mps 750 mmHg 55%
    12:00 +9°C° 0 mm 5 mps 750 mmHg 54%
    13:00 +9°C° 0 mm 5 mps 749 mmHg 53%
    14:00 +10°C° 0 mm 6 mps 749 mmHg 52%
    15:00 +9°C° 0 mm 5 mps 749 mmHg 54%
    16:00 +9°C° 0 mm 5 mps 749 mmHg 56%
    17:00 +8°C° 0 mm 4 mps 749 mmHg 59%
    18:00 +8°C° 0.2 mm 5 mps 749 mmHg 59%
    19:00 +8°C° 0.2 mm 5 mps 749 mmHg 59%
    20:00 +7°C° 0.2 mm 5 mps 749 mmHg 59%
    21:00 +7°C° 0.2 mm 5 mps 749 mmHg 59%
    22:00 +7°C° 0.2 mm 5 mps 749 mmHg 59%
    23:00 +6°C° 0.2 mm 5 mps 749 mmHg 59%

    24 October, Tuesday

    Time Temperature Precipitation Wind Pressure Humidity
    00:00 +6°C° 0.1 mm 5 mps 749 mmHg 60%
    01:00 +6°C° 0.1 mm 5 mps 749 mmHg 60%
    02:00 +6°C° 0.1 mm 5 mps 750 mmHg 61%
    03:00 +6°C° 0.1 mm 5 mps 750 mmHg 60%
    04:00 +5°C° 0.1 mm 5 mps 750 mmHg 59%
    05:00 +5°C° 0.1 mm 5 mps 750 mmHg 59%
    06:00 +4°C° 0 mm 6 mps 750 mmHg 58%
    07:00 +4°C° 0 mm 6 mps 750 mmHg 58%
    08:00 +3°C° 0 mm 6 mps 750 mmHg 57%
    09:00 +4°C° 0 mm 6 mps 751 mmHg 55%
    10:00 +5°C° 0 mm 6 mps 751 mmHg 52%
    11:00 +7°C° 0 mm 6 mps 751 mmHg 50%
    12:00 +7°C° 0 mm 6 mps 751 mmHg 49%
    13:00 +8°C° 0 mm 6 mps 751 mmHg 48%
    14:00 +8°C° 0 mm 5 mps 751 mmHg 47%
    15:00 +8°C° 0 mm 5 mps 751 mmHg 47%
    16:00 +8°C° 0 mm 5 mps 752 mmHg 47%
    17:00 +7°C° 0 mm 5 mps 752 mmHg 47%
    18:00 +7°C° 0 mm 5 mps 752 mmHg 47%
    19:00 +7°C° 0 mm 5 mps 753 mmHg 47%
    20:00 +6°C° 0 mm 5 mps 753 mmHg 47%
    21:00 +6°C° 0 mm 5 mps 753 mmHg 48%
    22:00 +6°C° 0 mm 5 mps 754 mmHg 49%
    23:00 +5°C° 0 mm 4 mps 754 mmHg 50%

    25 October, Wednesday

    Time Temperature Precipitation Wind Pressure Humidity
    00:00 +5°C° 0 mm 4 mps 754 mmHg 51%
    01:00 +5°C° 0 mm 5 mps 754 mmHg 52%
    02:00 +5°C° 0 mm 5 mps 755 mmHg 52%
    03:00 +3°C° 0 mm 5 mps 755 mmHg 53%
    04:00 +3°C° 0 mm 5 mps 755 mmHg 54%
    05:00 +2°C° 0 mm 5 mps 755 mmHg 55%
    06:00 +2°C° 0 mm 5 mps 755 mmHg 56%
    07:00 +2°C° 0 mm 5 mps 755 mmHg 57%
    08:00 +2°C° 0 mm 5 mps 756 mmHg 58%
    09:00 +3°C° 0.1 mm 5 mps 756 mmHg 58%
    10:00 +3°C° 0.1 mm 5 mps 756 mmHg 58%
    11:00 +5°C° 0.1 mm 5 mps 756 mmHg 58%
    12:00 +5°C° 0.1 mm 5 mps 756 mmHg 58%
    13:00 +5°C° 0.1 mm 5 mps 756 mmHg 59%
    14:00 +6°C° 0.1 mm 5 mps 756 mmHg 59%
    15:00 +5°C° 0.1 mm 4 mps 756 mmHg 60%
    16:00 +5°C° 0.1 mm 4 mps 756 mmHg 62%
    17:00 +5°C° 0.1 mm 3 mps 756 mmHg 64%
    18:00 +5°C° 0.1 mm 3 mps 756 mmHg 64%
    19:00 +5°C° 0.1 mm 4 mps 757 mmHg 64%
    20:00 +5°C° 0.1 mm 4 mps 757 mmHg 64%
    21:00 +4°C° 0 mm 3 mps 757 mmHg 64%
    22:00 +4°C° 0 mm 3 mps 757 mmHg 63%
    23:00 +4°C° 0 mm 3 mps 757 mmHg 63%
    Show more